Location: Unspecified
(0.0000°N, 0.0000°E)
Time: 11:21:02
(UTC+00:00)

Tiros 1 despin weight - Pass Details

Date: 20 November 2019
Orbit: 594 x 642 km, 48.2° (Epoch: 07 December)

Event Time Altitude Azimuth Distance (km) Brightness Sun altitude
Rises 09:16:26 0° 212° (SSW) 2,863 ? 48.5°
Reaches altitude 10° 09:18:47 10° 207° (SSW) 1,950 ? 49.0°
Maximum altitude 09:23:10 56° 129° (SE) 714 ? 50.0°
Drops below altitude 10° 09:27:29 10° 51° (NE) 1,921 ? 50.9°
Sets 09:29:47 0° 47° (NE) 2,816 ? 51.4°
